TimeEDT,TemperatureF,Dew PointF,Humidity,Sea Level PressureIn,VisibilityMPH,Wind Direction,Wind SpeedMPH,Gust SpeedMPH,PrecipitationIn,Events,Conditions,WindDirDegrees,DateUTC
12:15 AM,48.2,48.2,100,30.04,10.0,Calm,Calm,-,N/A,,Clear,0,2013-10-19 04:15:00
12:35 AM,48.2,46.4,93,30.02,9.0,Calm,Calm,-,N/A,,Clear,0,2013-10-19 04:35:00
12:55 AM,48.2,48.2,100,30.01,10.0,Calm,Calm,-,N/A,,Clear,0,2013-10-19 04:55:00
1:35 AM,50.0,48.2,94,30.01,10.0,Calm,Calm,-,N/A,,Clear,0,2013-10-19 05:35:00
1:55 AM,50.0,48.2,94,30.00,10.0,Calm,Calm,-,N/A,,Clear,0,2013-10-19 05:55:00
2:15 AM,50.0,48.2,94,30.00,10.0,Calm,Calm,-,N/A,,Mostly Cloudy,0,2013-10-19 06:15:00
2:35 AM,50.0,48.2,94,30.00,10.0,Calm,Calm,-,N/A,,Mostly Cloudy,0,2013-10-19 06:35:00
2:55 AM,50.0,48.2,94,29.99,10.0,Calm,Calm,-,N/A,,Scattered Clouds,0,2013-10-19 06:55:00
3:15 AM,50.0,48.2,94,29.98,10.0,Calm,Calm,-,N/A,,Partly Cloudy,0,2013-10-19 07:15:00
3:35 AM,50.0,48.2,94,29.98,10.0,Calm,Calm,-,N/A,,Clear,0,2013-10-19 07:35:00
3:55 AM,50.0,48.2,94,29.98,10.0,Calm,Calm,-,N/A,,Scattered Clouds,0,2013-10-19 07:55:00
4:15 AM,50.0,48.2,94,29.96,10.0,Calm,Calm,-,N/A,,Mostly Cloudy,0,2013-10-19 08:15:00
4:35 AM,51.8,48.2,88,29.95,10.0,Calm,Calm,-,N/A,,Scattered Clouds,0,2013-10-19 08:35:00
4:55 AM,50.0,48.2,94,29.95,10.0,Calm,Calm,-,N/A,,Clear,0,2013-10-19 08:55:00
5:15 AM,50.0,48.2,94,29.95,10.0,Calm,Calm,-,N/A,,Mostly Cloudy,0,2013-10-19 09:15:00
5:35 AM,50.0,48.2,94,29.95,10.0,Calm,Calm,-,N/A,,Mostly Cloudy,0,2013-10-19 09:35:00
5:55 AM,51.8,50.0,94,29.95,10.0,Calm,Calm,-,N/A,,Overcast,0,2013-10-19 09:55:00
6:15 AM,51.8,48.2,88,29.94,10.0,ESE,3.5,-,N/A,,Mostly Cloudy,110,2013-10-19 10:15:00
6:35 AM,51.8,48.2,88,29.94,10.0,Calm,Calm,-,N/A,,Mostly Cloudy,0,2013-10-19 10:35:00
6:55 AM,51.8,48.2,88,29.95,10.0,ESE,4.6,-,N/A,,Mostly Cloudy,120,2013-10-19 10:55:00
7:15 AM,51.8,48.2,88,29.94,10.0,SE,4.6,-,N/A,,Scattered Clouds,130,2013-10-19 11:15:00
7:35 AM,51.8,48.2,88,29.95,10.0,Calm,Calm,-,N/A,,Scattered Clouds,0,2013-10-19 11:35:00
7:55 AM,48.2,48.2,100,29.95,10.0,ESE,4.6,-,N/A,,Mostly Cloudy,120,2013-10-19 11:55:00
8:15 AM,50.0,48.2,94,29.96,10.0,Calm,Calm,-,N/A,,Partly Cloudy,0,2013-10-19 12:15:00
8:35 AM,51.8,48.2,88,29.97,10.0,Calm,Calm,-,N/A,,Clear,0,2013-10-19 12:35:00
8:55 AM,51.8,48.2,88,29.98,10.0,Calm,Calm,-,N/A,,Clear,0,2013-10-19 12:55:00
9:15 AM,53.6,50.0,88,29.97,10.0,Calm,Calm,-,N/A,,Clear,0,2013-10-19 13:15:00
9:35 AM,53.6,50.0,88,29.98,10.0,Calm,Calm,-,N/A,,Clear,0,2013-10-19 13:35:00
9:55 AM,53.6,50.0,88,29.97,10.0,Calm,Calm,-,N/A,,Clear,0,2013-10-19 13:55:00
10:15 AM,53.6,50.0,88,29.97,10.0,Calm,Calm,-,N/A,,Clear,0,2013-10-19 14:15:00
10:35 AM,55.4,51.8,88,29.99,10.0,Calm,Calm,-,N/A,,Scattered Clouds,0,2013-10-19 14:35:00
10:55 AM,55.4,51.8,88,29.99,10.0,Calm,Calm,-,N/A,,Mostly Cloudy,0,2013-10-19 14:55:00
11:15 AM,57.2,51.8,82,29.99,10.0,SW,3.5,-,N/A,,Partly Cloudy,230,2013-10-19 15:15:00
11:35 AM,59.0,51.8,77,30.00,10.0,Calm,Calm,-,N/A,,Scattered Clouds,0,2013-10-19 15:35:00
11:55 AM,60.8,51.8,72,30.00,10.0,WSW,6.9,-,N/A,,Scattered Clouds,250,2013-10-19 15:55:00
12:15 PM,62.6,51.8,68,29.98,10.0,WSW,8.1,-,N/A,,Clear,240,2013-10-19 16:15:00
12:35 PM,64.4,53.6,68,29.98,10.0,West,9.2,-,N/A,,Scattered Clouds,260,2013-10-19 16:35:00
12:55 PM,64.4,51.8,64,29.98,10.0,West,10.4,-,N/A,,Mostly Cloudy,260,2013-10-19 16:55:00
2:55 PM,62.6,53.6,72,29.96,10.0,NW,6.9,-,N/A,,Overcast,320,2013-10-19 18:55:00
3:15 PM,62.6,53.6,72,29.95,10.0,NNW,5.8,-,N/A,,Overcast,330,2013-10-19 19:15:00
3:35 PM,62.6,53.6,72,29.96,10.0,NNW,5.8,-,N/A,,Mostly Cloudy,330,2013-10-19 19:35:00
3:55 PM,60.8,51.8,72,29.96,10.0,NNW,8.1,-,N/A,,Mostly Cloudy,340,2013-10-19 19:55:00
4:15 PM,60.8,51.8,72,29.97,10.0,NNW,8.1,-,N/A,,Overcast,330,2013-10-19 20:15:00
4:35 PM,60.8,51.8,72,29.98,10.0,North,10.4,-,N/A,,Scattered Clouds,360,2013-10-19 20:35:00
4:55 PM,60.8,51.8,72,29.98,10.0,NNW,11.5,-,N/A,,Mostly Cloudy,340,2013-10-19 20:55:00
5:15 PM,57.2,50.0,77,29.99,10.0,NNW,6.9,-,N/A,,Overcast,330,2013-10-19 21:15:00
5:35 PM,57.2,50.0,77,30.00,10.0,NNW,11.5,-,N/A,,Mostly Cloudy,340,2013-10-19 21:35:00
5:55 PM,55.4,48.2,77,30.01,10.0,North,9.2,-,N/A,,Overcast,350,2013-10-19 21:55:00
6:15 PM,55.4,50.0,82,30.01,10.0,North,9.2,-,N/A,,Overcast,10,2013-10-19 22:15:00
6:35 PM,53.6,48.2,82,30.02,10.0,North,9.2,-,N/A,,Overcast,360,2013-10-19 22:35:00
6:55 PM,53.6,48.2,82,30.02,10.0,North,5.8,-,N/A,,Overcast,350,2013-10-19 22:55:00
7:15 PM,53.6,48.2,82,30.02,10.0,North,9.2,-,N/A,,Overcast,350,2013-10-19 23:15:00
7:35 PM,51.8,46.4,82,30.02,10.0,NNW,4.6,-,N/A,,Overcast,340,2013-10-19 23:35:00
7:55 PM,51.8,46.4,82,30.02,10.0,NNW,3.5,-,N/A,,Mostly Cloudy,330,2013-10-19 23:55:00
8:15 PM,50.0,46.4,87,30.03,10.0,NNW,3.5,-,N/A,,Scattered Clouds,340,2013-10-20 00:15:00
8:35 PM,48.2,46.4,93,30.03,10.0,North,3.5,-,N/A,,Scattered Clouds,350,2013-10-20 00:35:00
8:55 PM,48.2,46.4,93,30.04,10.0,NNE,3.5,-,N/A,,Mostly Cloudy,20,2013-10-20 00:55:00
9:15 PM,48.2,46.4,93,30.04,10.0,North,3.5,-,N/A,,Mostly Cloudy,10,2013-10-20 01:15:00
9:35 PM,48.2,46.4,93,30.05,10.0,North,3.5,-,N/A,,Overcast,360,2013-10-20 01:35:00
9:55 PM,48.2,44.6,87,30.05,10.0,North,3.5,-,N/A,,Overcast,360,2013-10-20 01:55:00
10:15 PM,48.2,44.6,87,30.06,10.0,NNW,3.5,-,N/A,,Mostly Cloudy,340,2013-10-20 02:15:00
10:35 PM,46.4,44.6,93,30.06,10.0,North,3.5,-,N/A,,Scattered Clouds,350,2013-10-20 02:35:00
10:55 PM,44.6,44.6,100,30.06,10.0,Calm,Calm,-,N/A,,Clear,0,2013-10-20 02:55:00
11:15 PM,42.8,42.8,100,30.06,10.0,Calm,Calm,-,N/A,,Clear,0,2013-10-20 03:15:00
11:35 PM,42.8,42.8,100,30.06,5.0,Calm,Calm,-,N/A,,Clear,0,2013-10-20 03:35:00
11:55 PM,41.0,39.2,93,30.06,2.0,Calm,Calm,-,N/A,,Scattered Clouds,0,2013-10-20 03:55:00